SCP
0 0 0 0 0 0 0 0 0 0 0 0 0 0 0 0 0 0 0 0 0 0 0 0 0 0 0 0 0 0 0 0 0 0 0 0 0 0 0 0 0 0 0
0 0 0 0 0 0 0 0 0 0 0 0 0 0 0 0 0 0 0 0 0 0 0 0 0 0 0 0 0 0 0 0 0 0 0 0 0 0 0 0 0 0 0
0 -0 0 0 0 -0 0 0 0 0 0 0 0 0 0 0 0 0 0 0 0 0 0 0 0 0 0 0 0 0 0 0 0 0 0 0 0 0 0 0 0 0 0
0 -0 -0 -0 -0 -0 0 0 0 0 0 0 0 0 0 0 0 0 0 0 0 0 0 0 0 0 0 0 0 0 0 0 0 0 0 0 0 0 0 0 0 0 0
0 0 0 -0 -0 -0 -0 0 0 0 0 0 0 0 0 0 0 0 0 0 0 0 0 0 0 0 0 0 0 0 0 0 0 0 0 0 0 0 0 0 0 0 0
-0 0 0 0 -0 -0 -0 0 0 0 0 0 0 0 0 0 0 0 0 0 0 0 0 0 0 0 0 0 0 0 0 0 0 0 0 0 0 0 0 0 0 0 0
-0 -0 0 0 0 -0 0 0 0 0 0 0 0 0 0 0 0 0 0 0 0 0 0 0 0 0 0 0 0 0 0 0 0 0 0 0 0 0 0 0 0 0 0
0 -0 0 0 0 0 0 0 0 0 0 0 0 0 0 0 0 0 0 0 0 0 0 0 0 0 0 0 0 0 0 0 0 0 0 0 0 0 0 0 0 0 0
0 0 0 0 0 0 0 0 0 0 0 0 0 0 0 0 0 0 0 0 0 0 0 0 0 0 0 0 0 0 0 0 0 0 0 0 0 0 0 0 0 0 0
0 0 0 0 0 0 0 0 0 0 0 0 0 0 0 0 0 0 0 0 0 0 0 0 0 0 0 0 0 0 0 0 0 0 0 0 0 0 0 0 0 0 0
0 0 0 0 0 0 0 0 0 0 0 0 0 0 0 0 0 0 0 0 0 0 0 0 0 0 0 0 0 0 0 0 0 0 0 0 0 0 0 0 0 0 0
0 0 0 0 0 0 0 0 0 0 0 0 0 0 0 0 0 0 0 0 0 0 0 0 0 0 0 0 0 0 0 0 0 0 0 0 0 0 0 0 0 0 0
0 0 0 0 0 0 0 0 0 0 0 0 0 0 0 0 0 0 0 0 0 0 0 0 0 0 0 0 0 0 0 0 0 0 0 0 0 0 0 0 0 0 0
0 0 0 0 0 0 0 0 0 0 0 0 0 0 0 0 0 0 0 0 0 0 0 0 0 0 0 0 0 0 0 0 0 0 0 0 0 0 0 0 0 0 0
0 0 0 0 0 0 0 0 0 0 0 0 0 0 0 0 0 0 0 0 0 0 0 0 0 0 0 0 0 0 0 0 0 0 0 0 0 0 0 0 0 0 0
0 0 0 0 0 0 0 0 0 0 0 0 0 0 0 0 0 0 0 0 0 0 0 0 0 0 0 0 0 0 0 0 0 0 0 0 0 0 0 0 0 0 0
0 0 0 0 0 0 0 0 0 0 0 0 0 0 0 0 0 0 0 0 0 0 0 0 0 0 0 0 0 0 0 0 0 0 0 0 0 0 0 0 0 0 0
0 0 0 0 0 0 0 0 0 0 0 0 0 0 0 0 0 0 0 0 0 0 0 0 0 0 0 0 0 0 0 0 0 0 0 0 0 0 0 0 0 0 0
0 0 0 0 0 0 0 0 0 0 0 0 0 0 0 0 0 0 0 0 0 0 0 0 0 0 0 0 0 0 0 0 0 0 0 0 0 0 0 0 0 0 0
0 0 0 0 0 0 0 0 0 0 0 0 0 0 0 0 0 0 0 0 0 0 0 0 0 0 0 0 0 0 0 0 0 0 0 0 0 0 0 0 0 0 0
0 0 0 0 0 0 0 0 0 0 0 0 0 0 0 0 0 0 0 0 0 0 0 0 0 0 0 0 0 0 0 0 0 0 0 0 0 0 0 0 0 0 0
0 0 0 0 0 0 0 0 0 0 0 0 0 0 0 0 0 0 0 0 0 0 0 0 0 0 0 0 0 0 0 0 0 0 0 0 0 0 0 0 0 0 0
0 0 0 0 0 0 0 0 0 0 0 0 0 0 0 0 0 0 0 0 0 0 0 0 0 0 0 0 0 0 0 0 0 0 0 0 0 0 0 0 0 0 0
0 0 0 0 0 0 0 0 0 0 0 0 0 0 0 0 0 0 0 0 0 0 0 0 0 0 0 0 0 0 0 0 0 0 0 0 0 0 0 0 0 0 0
0 0 0 0 0 0 0 0 0 0 0 0 0 0 0 0 0 0 0 0 0 0 0 0 0 0 0 0 0 0 0 0 0 0 0 0 0 0 0 0 0 0 0
0 0 0 0 0 0 0 0 0 0 0 0 0 0 0 0 0 0 0 0 0 0 0 0 0 0 0 0 0 0 0 0 0 0 0 0 0 0 0 0 0 0 0
Wind_Speed
3 2 2 2 2 3 3 4 4 4 5 5 5 5 5 5 5 5 4 5 5 4 4 4 4 3 2 2 2 2 2 2 3 2 1 1 1 2 2 2 3 3 4
3 3 3 3 3 3 3 4 4 5 5 5 5 5 5 5 5 6 5 5 5 5 5 4 4 3 3 3 2 3 2 3 3 3 2 1 2 2 2 3 3 3 3
2 3 2 2 3 3 3 3 4 4 4 5 5 5 5 5 5 5 5 5 5 5 5 5 5 4 4 3 3 3 2 2 2 3 3 2 2 2 2 3 4 3 4
2 2 2 2 2 2 2 3 3 4 4 4 5 5 5 5 5 5 5 5 5 4 5 5 5 5 5 4 4 3 3 2 2 2 3 3 2 2 2 2 3 3 4
1 1 2 2 2 2 2 2 2 3 4 4 4 4 4 4 5 5 5 5 5 4 4 4 4 5 6 5 4 4 3 3 2 3 3 3 3 2 3 3 3 3 4
1 1 1 1 2 2 2 2 2 2 3 3 4 4 5 4 7 8 6 5 4 5 4 4 4 5 6 7 7 7 6 5 5 4 4 5 5 4 3 3 3 3 4
1 0 1 1 2 2 2 2 2 3 3 3 4 4 4 5 8 8 8 5 4 4 4 4 3 4 6 4 5 6 7 9 9 6 6 6 5 5 3 3 4 5 6
1 0 0 1 1 1 2 2 2 2 2 3 3 4 4 5 8 8 8 4 3 4 5 5 5 4 5 5 5 4 5 5 6 5 5 6 5 4 4 5 5 5 5
0 0 0 0 1 1 2 2 1 2 2 2 3 3 3 4 7 8 7 3 3 4 4 5 5 5 7 8 6 5 5 5 7 8 8 7 8 8 6 3 3 4 6
1 1 0 0 1 2 2 1 1 1 2 1 2 2 3 3 6 8 8 3 4 4 4 4 7 8 9 9 6 5 6 5 4 4 5 7 6 6 8 5 4 4 5
1 0 0 0 1 1 1 1 1 1 1 1 1 2 2 4 5 7 8 4 4 4 3 3 4 8 9 10 8 6 8 6 4 4 4 4 3 3 4 4 4 4 5
0 0 0 0 0 1 1 1 1 2 2 1 1 2 2 2 4 6 9 8 6 4 4 3 4 7 8 8 7 8 9 7 3 2 3 4 4 4 3 4 4 4 5
1 1 0 0 0 0 1 1 1 1 1 1 1 2 2 1 2 6 8 9 8 5 4 6 6 7 7 6 8 9 7 3 3 3 4 4 4 3 2 2 4 4 5
1 1 0 0 0 0 0 1 1 2 2 2 2 2 2 2 2 2 3 3 5 4 3 4 6 7 6 6 6 5 3 3 3 4 4 3 2 2 3 3 4 4 4
1 1 0 0 1 1 1 1 2 2 3 3 3 3 3 3 5 6 4 3 3 3 2 2 2 2 3 3 3 3 3 2 3 3 3 3 3 3 3 3 3 4 5
1 1 1 1 0 0 1 1 2 2 3 4 4 3 3 5 5 6 6 6 7 7 4 3 3 3 4 4 3 3 3 3 3 3 3 4 4 4 4 4 4 4 6
1 1 1 1 1 1 1 1 2 2 2 2 3 3 4 5 5 6 6 6 7 7 4 3 4 4 3 3 3 3 3 3 3 3 4 4 4 4 4 4 4 5 5
2 2 1 1 1 1 1 1 1 1 2 2 3 4 5 5 5 5 5 3 3 3 3 3 3 3 3 3 3 3 3 3 3 3 4 4 4 4 5 5 5 5 6
2 2 1 1 1 1 1 1 1 2 2 2 2 3 4 4 4 4 3 2 2 3 3 3 3 3 3 3 3 3 3 3 3 3 4 4 4 4 5 5 5 8 7
2 3 2 1 1 1 1 1 1 2 2 2 2 2 2 1 1 2 2 2 2 3 3 3 3 3 3 3 3 3 3 3 4 4 4 4 4 4 5 6 5 5 5
2 2 3 2 1 1 1 2 2 2 2 2 2 3 4 2 2 2 2 2 2 3 3 3 3 3 3 3 3 4 4 4 4 4 4 4 4 4 4 5 5 5 5
2 2 2 2 2 1 1 1 1 2 2 2 2 3 5 2 2 2 3 3 2 2 2 2 3 3 3 3 3 3 4 4 4 4 4 4 4 4 4 4 5 5 5
2 2 2 2 2 3 3 2 2 2 2 3 3 3 3 2 2 3 3 2 2 2 2 2 3 3 3 3 3 3 4 4 4 4 4 4 4 4 4 5 5 5 5
2 2 2 2 2 2 2 2 2 3 3 3 3 3 3 3 3 3 3 2 2 2 2 2 3 4 5 4 3 3 3 4 4 4 5 5 5 5 4 5 5 6 5
3 3 3 3 3 3 3 3 3 3 3 3 3 3 3 3 3 3 3 3 3 3 3 3 3 4 5 6 5 5 7 9 8 5 4 5 5 5 5 5 5 5 4
3 3 3 3 3 3 3 3 3 3 3 3 3 3 3 3 3 3 3 3 3 3 3 3 4 5 6 5 6 7 9 10 10 9 5 4 4 4 4 4 5 5 4
Wind_Direction
162 158 155 160 164 160 163 174 167 158 158 162 164 166 169 169 166 165 169 165 166 168 170 171 178 169 166 170 166 174 185 173 215 264 259 228 217 242 263 256 261 254 265
164 161 165 169 169 170 174 173 167 163 163 164 164 168 171 172 170 172 176 174 175 177 177 175 186 180 183 183 178 191 200 197 199 238 259 245 243 235 241 257 267 262 255
150 157 160 168 176 183 181 175 170 166 166 167 166 172 177 178 177 178 177 178 179 181 179 182 188 182 194 193 190 198 206 211 203 216 247 249 253 245 258 269 264 264 269
142 156 169 178 182 184 181 173 171 168 170 176 176 177 178 180 179 178 177 178 179 181 182 186 190 191 196 195 199 203 200 205 207 220 241 251 250 251 241 263 281 268 269
163 174 188 176 169 168 171 175 170 173 179 178 175 175 174 177 183 178 179 180 179 184 187 190 193 193 194 197 204 200 196 202 213 222 239 254 254 247 244 247 267 283 281
182 193 182 169 171 171 174 173 171 178 176 172 176 177 180 190 186 184 183 181 182 188 194 195 197 198 203 215 222 221 214 210 214 221 235 239 247 244 249 250 265 289 290
184 178 184 175 173 170 167 171 179 184 179 180 185 183 188 191 188 190 193 186 188 195 197 197 206 211 212 210 227 237 239 242 237 229 232 238 241 237 238 253 251 257 265
175 168 182 180 177 169 167 185 193 187 185 191 194 190 187 193 192 196 198 198 200 205 204 203 207 214 209 207 211 222 230 240 244 239 233 241 244 237 226 241 252 268 275
354 319 339 169 172 182 195 198 198 182 189 198 191 184 186 196 196 198 198 192 206 219 216 211 211 213 222 221 215 222 236 245 255 254 255 260 269 272 270 265 260 270 282
281 274 266 204 200 203 201 198 201 181 191 190 201 193 190 200 206 205 202 196 208 219 222 221 222 223 228 225 216 215 233 242 242 253 259 267 268 264 267 247 234 253 274
313 310 264 216 211 195 180 181 176 170 167 190 220 225 208 205 211 212 211 207 209 215 220 222 224 232 235 232 228 223 238 249 239 237 247 253 254 247 246 241 234 236 256
355 344 327 321 216 149 161 177 174 170 172 199 231 248 238 219 212 218 221 226 222 215 225 225 226 236 243 245 241 247 255 259 241 235 247 252 250 248 248 247 247 249 250
16 331 330 50 31 150 167 179 183 185 187 206 214 237 249 242 232 231 233 237 238 228 227 235 242 243 247 248 249 254 254 241 227 241 249 252 247 247 251 267 274 268 268
325 313 345 123 247 199 184 191 192 202 204 213 221 231 245 245 234 225 224 234 239 243 243 245 246 243 244 247 250 246 233 225 231 242 254 257 255 252 255 260 271 276 279
317 296 288 257 241 245 245 237 229 229 218 219 223 220 225 244 238 227 220 217 214 223 222 217 221 225 226 234 237 234 227 232 244 246 257 265 266 265 267 264 265 271 271
309 292 279 262 252 253 286 317 304 263 264 258 250 245 249 248 256 251 247 249 247 246 239 221 228 228 232 233 234 236 231 232 237 243 251 253 259 262 268 269 264 264 270
303 290 288 273 242 238 240 246 306 328 316 294 278 277 273 277 271 264 261 261 257 248 239 229 231 231 234 235 235 237 242 242 242 244 248 249 252 258 262 266 266 269 271
322 308 298 276 258 253 252 251 251 264 298 311 298 277 274 275 275 266 259 265 260 244 230 232 236 236 237 239 241 246 250 251 248 248 249 248 248 254 260 261 262 266 271
324 316 316 310 286 256 256 263 265 265 270 287 308 304 285 279 277 271 261 231 236 247 243 240 239 237 239 240 243 246 247 249 250 251 252 252 251 254 259 260 262 270 274
327 325 332 329 316 300 271 259 259 260 265 270 277 285 298 309 295 286 262 235 237 247 249 249 245 240 240 242 245 249 253 251 248 250 255 256 254 254 259 262 261 265 266
328 331 335 340 319 299 286 272 263 259 262 270 274 276 283 275 261 269 268 253 246 252 253 254 252 249 247 245 246 247 250 254 251 251 254 255 253 257 259 260 262 264 266
338 332 327 320 316 313 308 297 285 279 278 280 288 289 288 287 275 273 267 261 251 248 247 248 252 250 245 244 245 247 250 256 255 253 254 253 254 256 258 259 261 264 264
330 326 325 322 317 310 312 306 297 291 289 286 284 286 287 278 273 275 274 272 268 264 255 250 257 261 257 251 244 243 249 253 252 251 254 256 256 255 256 257 259 261 260
326 321 314 311 310 304 300 299 299 295 291 290 289 288 287 282 281 282 282 279 274 268 263 261 262 265 268 270 263 255 252 257 256 253 251 253 257 257 256 257 257 254 255
322 315 309 305 303 301 301 302 301 299 298 296 294 293 292 291 290 287 281 277 273 273 271 269 266 265 265 266 265 263 267 272 272 263 249 247 251 253 254 256 256 253 254
314 310 306 305 301 299 297 296 296 297 296 295 293 290 289 289 288 284 283 280 278 277 277 276 268 269 272 270 266 267 272 274 273 273 263 245 245 251 251 253 253 250 251